Location: Camps Bay
(33.9517°S, 18.3844°E)
Time: 19:17:44
(UTC+00:00)

Cosmos 2285 Rocket - Pass Details

Date: 18 January 2020
Orbit: 971 x 999 km, 74.0° (Epoch: 21 February)

Event Time Altitude Azimuth Distance (km) Brightness Sun altitude
Exits shadow 02:05:57 26° 344° (NNW) 1,828 5.0 -19.2°
Maximum altitude 02:09:46 90° 316° (NW) 1,004 4.0 -18.6°
Drops below altitude 10° 02:16:16 10° 163° (SSE) 2,789 7.3 -17.6°
Sets 02:18:51 0° 162° (SSE) 3,747 8.1 -17.2°
